When you browse on this site, cookies collect data to enhance your experience and personalize the content and advertising you see.
Visit our Privacy Policy to learn more. By continuing to use the site, you agree to this use of cookies and data.
  • En España
  • Lista de países
  • Para 7 días
  • Temperatura del agua
  • El tiempo en el mapa
  • Informadores
  • user-avatar
    Iniciar sesión

    Tiempo cada hora Ashton-under-Lyne

    Hoy, 13 Diciembre, Viernes

    Tiempo Temperatura Precipitaciones Viento Presión Humedad
    00:00 +5°C° 0.1 mm 2 mps 716 mmHg 94%
    01:00 +4°C° 0.1 mm 3 mps 716 mmHg 94%
    02:00 +4°C° 0.1 mm 3 mps 716 mmHg 94%
    03:00 +4°C° 0.1 mm 4 mps 717 mmHg 94%
    04:00 +4°C° 0.5 mm 4 mps 717 mmHg 91%
    05:00 +3°C° 0.5 mm 5 mps 718 mmHg 88%
    06:00 +4°C° 0.5 mm 6 mps 719 mmHg 85%
    07:00 +4°C° 0.2 mm 7 mps 719 mmHg 86%
    08:00 +4°C° 0.2 mm 7 mps 720 mmHg 87%
    09:00 +4°C° 0.2 mm 8 mps 721 mmHg 87%
    10:00 +4°C° 0.2 mm 7 mps 721 mmHg 87%
    11:00 +4°C° 0.2 mm 7 mps 721 mmHg 87%
    12:00 +4°C° 0.2 mm 7 mps 722 mmHg 87%
    13:00 +4°C° 0.2 mm 7 mps 722 mmHg 85%
    14:00 +5°C° 0.2 mm 7 mps 722 mmHg 82%
    15:00 +5°C° 0.2 mm 7 mps 723 mmHg 80%
    16:00 +5°C° 0.1 mm 8 mps 723 mmHg 80%
    17:00 +4°C° 0.1 mm 8 mps 724 mmHg 81%
    18:00 +4°C° 0.1 mm 8 mps 724 mmHg 81%
    19:00 +4°C° 0.1 mm 7 mps 724 mmHg 80%
    20:00 +3°C° 0.1 mm 7 mps 724 mmHg 79%
    21:00 +3°C° 0.1 mm 6 mps 724 mmHg 78%
    22:00 +3°C° 0 mm 6 mps 724 mmHg 79%
    23:00 +2°C° 0 mm 6 mps 723 mmHg 80%

    Mañana, 14 Diciembre, Sábado

    Tiempo Temperatura Precipitaciones Viento Presión Humedad
    00:00 +2°C° 0 mm 6 mps 723 mmHg 81%
    01:00 +2°C° 0.1 mm 6 mps 723 mmHg 83%
    02:00 +2°C° 0.1 mm 6 mps 723 mmHg 85%
    03:00 +2°C° 0.1 mm 7 mps 723 mmHg 87%
    04:00 +1°C° 0.8 mm 8 mps 724 mmHg 80%
    05:00 +1°C° 0.8 mm 8 mps 724 mmHg 74%
    06:00 +1°C° 0.8 mm 9 mps 725 mmHg 67%
    07:00 +1°C° 0.1 mm 9 mps 726 mmHg 67%
    08:00 +1°C° 0.1 mm 9 mps 726 mmHg 67%
    09:00 0°C° 0.1 mm 9 mps 727 mmHg 67%
    10:00 +1°C° 0.2 mm 9 mps 727 mmHg 65%
    11:00 +1°C° 0.2 mm 10 mps 727 mmHg 62%
    12:00 +1°C° 0.2 mm 10 mps 728 mmHg 60%
    13:00 +1°C° 0.1 mm 10 mps 728 mmHg 60%
    14:00 0°C° 0.1 mm 9 mps 728 mmHg 60%
    15:00 0°C° 0.1 mm 8 mps 729 mmHg 60%
    16:00 +1°C° 0 mm 6 mps 729 mmHg 63%
    17:00 0°C° 0 mm 5 mps 728 mmHg 66%
    18:00 +1°C° 0 mm 3 mps 728 mmHg 69%
    19:00 0°C° 1 mm 4 mps 727 mmHg 77%
    20:00 0°C° 1 mm 4 mps 727 mmHg 85%
    21:00 0°C° 1 mm 4 mps 726 mmHg 93%
    22:00 0°C° 0.2 mm 5 mps 726 mmHg 91%
    23:00 0°C° 0.2 mm 5 mps 726 mmHg 89%

    Pasado mañana, 15 Diciembre, Domingo

    Tiempo Temperatura Precipitaciones Viento Presión Humedad
    00:00 -1°C° 0.2 mm 6 mps 725 mmHg 88%
    01:00 -1°C° 0.3 mm 6 mps 727 mmHg 89%
    02:00 -1°C° 0.3 mm 6 mps 728 mmHg 90%
    03:00 -1°C° 0.3 mm 5 mps 729 mmHg 91%
    04:00 -1°C° 0 mm 5 mps 730 mmHg 88%
    05:00 -1°C° 0 mm 4 mps 730 mmHg 86%
    06:00 -1°C° 0 mm 4 mps 731 mmHg 84%
    07:00 -1°C° 0.5 mm 4 mps 731 mmHg 87%
    08:00 0°C° 0.5 mm 5 mps 731 mmHg 90%
    09:00 -1°C° 0.5 mm 6 mps 731 mmHg 93%
    10:00 +1°C° 0.3 mm 6 mps 732 mmHg 89%
    11:00 +1°C° 0.3 mm 6 mps 732 mmHg 86%
    12:00 +2°C° 0.3 mm 6 mps 732 mmHg 82%
    13:00 +2°C° 0.2 mm 6 mps 732 mmHg 82%
    14:00 +2°C° 0.2 mm 5 mps 732 mmHg 83%
    15:00 +2°C° 0.2 mm 5 mps 733 mmHg 83%
    16:00 +1°C° 0.2 mm 5 mps 733 mmHg 86%
    17:00 +1°C° 0.2 mm 5 mps 732 mmHg 89%
    18:00 +1°C° 0.2 mm 4 mps 732 mmHg 92%
    19:00 +1°C° 0.2 mm 5 mps 733 mmHg 90%
    20:00 +1°C° 0.2 mm 5 mps 733 mmHg 89%
    21:00 +1°C° 0.2 mm 5 mps 734 mmHg 88%
    22:00 +1°C° 0 mm 5 mps 734 mmHg 86%
    23:00 +1°C° 0 mm 5 mps 734 mmHg 85%

    16 Diciembre, Lunes

    Tiempo Temperatura Precipitaciones Viento Presión Humedad
    00:00 +1°C° 0 mm 5 mps 734 mmHg 83%
    01:00 +1°C° 0.1 mm 5 mps 733 mmHg 83%
    02:00 +1°C° 0.1 mm 5 mps 733 mmHg 84%
    03:00 +2°C° 0.1 mm 6 mps 733 mmHg 84%
    04:00 +2°C° 0 mm 6 mps 733 mmHg 83%
    05:00 +1°C° 0 mm 6 mps 733 mmHg 82%
    06:00 +1°C° 0 mm 6 mps 733 mmHg 81%
    07:00 +1°C° 0 mm 6 mps 734 mmHg 80%
    08:00 +1°C° 0 mm 6 mps 735 mmHg 80%
    09:00 +1°C° 0 mm 5 mps 735 mmHg 80%
    10:00 +2°C° 0 mm 5 mps 736 mmHg 78%
    11:00 +2°C° 0 mm 5 mps 737 mmHg 77%
    12:00 +2°C° 0 mm 5 mps 737 mmHg 75%
    13:00 +2°C° 0 mm 5 mps 737 mmHg 76%
    14:00 +3°C° 0 mm 4 mps 738 mmHg 78%
    15:00 +3°C° 0 mm 3 mps 738 mmHg 79%
    16:00 +2°C° 0 mm 3 mps 739 mmHg 80%
    17:00 +2°C° 0 mm 3 mps 739 mmHg 82%
    18:00 +1°C° 0 mm 3 mps 739 mmHg 83%
    19:00 +2°C° 0 mm 2 mps 740 mmHg 85%
    20:00 +2°C° 0 mm 2 mps 740 mmHg 87%
    21:00 +2°C° 0 mm 2 mps 740 mmHg 89%
    22:00 +2°C° 0 mm 2 mps 740 mmHg 90%
    23:00 +2°C° 0 mm 2 mps 740 mmHg 90%

    17 Diciembre, Martes

    Tiempo Temperatura Precipitaciones Viento Presión Humedad
    00:00 +2°C° 0 mm 2 mps 740 mmHg 90%
    01:00 +2°C° 0 mm 2 mps 741 mmHg 91%
    02:00 +2°C° 0 mm 2 mps 741 mmHg 91%
    03:00 +3°C° 0 mm 1 mps 741 mmHg 92%
    04:00 +2°C° 0 mm 1 mps 741 mmHg 92%
    05:00 +1°C° 0 mm 2 mps 741 mmHg 92%
    06:00 +1°C° 0 mm 2 mps 741 mmHg 93%
    07:00 +1°C° 0 mm 2 mps 741 mmHg 92%
    08:00 +1°C° 0 mm 2 mps 742 mmHg 92%
    09:00 +1°C° 0 mm 2 mps 742 mmHg 92%
    10:00 +2°C° 0 mm 2 mps 742 mmHg 89%
    11:00 +3°C° 0 mm 2 mps 742 mmHg 86%
    12:00 +3°C° 0 mm 3 mps 742 mmHg 84%
    13:00 +3°C° 0.1 mm 3 mps 743 mmHg 85%
    14:00 +3°C° 0.1 mm 3 mps 743 mmHg 87%
    15:00 +3°C° 0.1 mm 3 mps 743 mmHg 89%
    16:00 +3°C° 0.1 mm 3 mps 744 mmHg 90%
    17:00 +3°C° 0.1 mm 3 mps 744 mmHg 91%
    18:00 +3°C° 0.1 mm 3 mps 745 mmHg 91%
    19:00 +3°C° 0 mm 3 mps 745 mmHg 91%
    20:00 +2°C° 0 mm 3 mps 746 mmHg 91%
    21:00 +2°C° 0 mm 3 mps 747 mmHg 91%
    22:00 +2°C° 0 mm 3 mps 747 mmHg 91%
    23:00 +3°C° 0 mm 2 mps 748 mmHg 92%

    18 Diciembre, Miércoles

    Tiempo Temperatura Precipitaciones Viento Presión Humedad
    00:00 +2°C° 0 mm 2 mps 748 mmHg 92%
    01:00 +2°C° 0 mm 2 mps 749 mmHg 91%
    02:00 +2°C° 0 mm 2 mps 749 mmHg 91%
    03:00 +2°C° 0 mm 2 mps 749 mmHg 90%
    04:00 +2°C° 0 mm 2 mps 749 mmHg 90%
    05:00 +2°C° 0 mm 2 mps 750 mmHg 89%
    06:00 +2°C° 0 mm 2 mps 750 mmHg 89%
    07:00 +2°C° 0 mm 2 mps 750 mmHg 89%
    08:00 +2°C° 0 mm 2 mps 750 mmHg 89%
    09:00 +2°C° 0 mm 2 mps 751 mmHg 90%
    10:00 +3°C° 0 mm 2 mps 751 mmHg 88%
    11:00 +3°C° 0 mm 3 mps 751 mmHg 87%
    12:00 +4°C° 0 mm 3 mps 751 mmHg 85%
    13:00 +4°C° 0 mm 3 mps 750 mmHg 87%
    14:00 +3°C° 0 mm 3 mps 750 mmHg 88%
    15:00 +3°C° 0 mm 3 mps 750 mmHg 89%
    16:00 +3°C° 0 mm 3 mps 750 mmHg 89%
    17:00 +2°C° 0 mm 3 mps 750 mmHg 89%
    18:00 +2°C° 0 mm 3 mps 749 mmHg 89%
    19:00 +2°C° 0 mm 3 mps 749 mmHg 90%
    20:00 +2°C° 0 mm 3 mps 749 mmHg 92%
    21:00 +2°C° 0 mm 3 mps 749 mmHg 93%
    22:00 +2°C° 0 mm 3 mps 749 mmHg 93%
    23:00 +2°C° 0 mm 3 mps 749 mmHg 93%
    Mostrar más